Location: Chamerau
(49.1969°N, 12.7525°E)
Time: 08:45:44
(UTC+00:00)

Cosmos 1125 Rocket - Pass Details

Date: 18 September 2020
Orbit: 758 x 780 km, 74.0° (Epoch: 24 October)

Event Time Altitude Azimuth Distance (km) Brightness Sun altitude
Rises 18:57:29 0° 180° (S) 3,244 6.5 -17.1°
Reaches altitude 10° 18:59:57 10° 174° (S) 2,323 5.7 -17.5°
Maximum altitude 19:04:54 42° 104° (ESE) 1,099 3.8 -18.2°
Drops below altitude 10° 19:09:54 10° 35° (NE) 2,343 5.9 -18.9°
Sets 19:12:23 0° 29° (NNE) 3,276 6.8 -19.3°
